Location: Newark
(67.3000°N, 13.7167°E)
Time: 19:52:31
(UTC+00:00)

N. Korean satellite - Visible Passes

Search period start: 22 January 2020 00:00
Search period end: 01 February 2020 00:00
Orbit: 454 x 507 km, 97.2° (Epoch: 22 January)

Date Brightness Start Highest point End Pass type
(mag) Time Alt. Az. Time Alt. Az. Time Alt. Az.
22 Jan 9.7 03:49:07 10° NE 03:51:19 16° E 03:53:32 10° ESE visible
22 Jan 6.9 05:21:53 10° NNE 05:25:22 66° ESE 05:28:54 10° S visible
22 Jan 7.3 06:55:31 10° N 06:58:37 30° NW 07:01:45 10° WSW visible
22 Jan 8.0 16:10:22 10° S 16:13:37 39° W 16:16:54 10° NNW visible
23 Jan 10.1 03:24:35 10° ENE 03:25:28 11° ENE 03:26:21 10° E visible
23 Jan 7.8 04:56:24 10° NNE 04:59:46 42° E 05:03:11 10° S visible
23 Jan 6.8 06:29:53 10° NNE 06:33:14 42° WNW 06:36:37 10° SW visible
23 Jan 7.1 15:44:36 10° S 15:48:00 61° WSW 15:51:27 10° NNW visible
23 Jan 9.8 17:20:11 10° WSW 17:22:07 14° W 17:24:05 10° NW visible
24 Jan 8.6 04:31:00 10° NNE 04:34:06 29° E 04:37:16 10° SSE visible
24 Jan 6.5 06:04:18 10° NNE 06:07:47 63° WNW 06:11:19 10° SW visible
24 Jan 6.4 15:18:59 10° SSE 15:22:26 87° ENE 15:25:57 10° NNW visible
24 Jan 9.3 16:53:40 10° SW 16:56:20 21° W 16:59:01 10° NW visible
25 Jan 9.3 04:05:41 10° NE 04:08:23 20° E 04:11:06 10° SE visible
25 Jan 6.5 05:38:44 10° NNE 05:42:18 87° ESE 05:45:53 10° SSW visible
25 Jan 7.6 07:12:27 10° N 07:15:23 25° NW 07:18:21 10° WSW visible
25 Jan 8.6 16:27:30 10° SSW 16:30:36 30° W 16:33:43 10° NNW visible
26 Jan 9.8 03:40:38 10° NE 03:42:35 14° E 03:44:32 10° ESE visible
26 Jan 7.2 05:13:13 10° NNE 05:16:44 57° ESE 05:20:16 10° S visible
26 Jan 7.2 06:46:48 10° N 06:50:02 34° NW 06:53:18 10° WSW visible
26 Jan 7.7 16:01:35 10° S 16:04:55 45° W 16:08:19 10° NNW visible
26 Jan 10.1 17:38:09 10° W 17:39:13 11° WNW 17:40:18 10° WNW visible
27 Jan 8.1 04:47:45 10° NNE 04:51:06 37° E 04:54:29 10° SSE visible
27 Jan 6.7 06:21:12 10° NNE 06:24:38 48° WNW 06:28:06 10° SW visible
27 Jan 6.8 15:35:52 10° SSE 15:39:19 71° WSW 15:42:50 10° NNW visible
27 Jan 9.7 17:11:07 10° SW 17:13:22 16° W 17:15:39 10° NW visible
28 Jan 8.9 04:22:22 10° NE 04:25:24 26° E 04:28:28 10° SSE visible
28 Jan 6.4 05:55:36 10° NNE 05:59:09 72° WNW 06:02:45 10° SSW visible
28 Jan 9.2 16:44:44 10° SW 16:47:36 23° W 16:50:29 10° NW visible
29 Jan 9.5 03:57:07 10° NE 03:59:39 18° E 04:02:12 10° SE visible
29 Jan 6.7 05:30:03 10° NNE 05:33:38 76° ESE 05:37:15 10° SSW visible
29 Jan 7.5 07:03:43 10° N 07:06:48 28° NW 07:09:55 10° WSW visible
29 Jan 8.4 16:18:40 10° SSW 16:21:52 34° W 16:25:08 10° NNW visible
30 Jan 10.0 03:32:11 10° NE 03:33:49 13° E 03:35:28 10° ESE visible
30 Jan 7.5 05:04:33 10° NNE 05:08:03 50° ESE 05:11:35 10° S visible
30 Jan 7.0 06:38:05 10° NNE 06:41:25 38° WNW 06:44:48 10° SW visible
30 Jan 7.4 15:52:49 10° S 15:56:13 52° WSW 15:59:41 10° NNW visible
30 Jan 9.9 17:28:47 10° WSW 17:30:26 13° W 17:32:05 10° NW visible
31 Jan 8.4 04:39:06 10° NNE 04:42:24 33° E 04:45:44 10° SSE visible
31 Jan 6.6 06:12:28 10° NNE 06:15:59 55° WNW 06:19:33 10° SW visible
31 Jan 6.6 15:27:09 10° SSE 15:30:38 81° WSW 15:34:11 10° NNW visible
31 Jan 9.6 17:02:05 10° SW 17:04:36 18° W 17:07:09 10° NW visible
